User: anonymous   Login
Location: Unspecified
(0.0000°N, 0.0000°E)
Time: 03:40:42
(UTC+00:00)
Language:

GOMX4-B - Orbit

View from above orbital plane
View from above orbital plane
View from above satellite
View from above satellite

Ground track
Ground track

The orbit data is extracted from the following two-line orbital elements,

1 43196U 18015E   18267.89994592 +.00000396 +00000-0 +19343-4 0  9999
2 43196 097.3577 034.8607 0019280 163.1012 197.0868 15.23749735035716
Epoch (UTC): 24 September 2018 21:35:55
Eccentricity: 0.0019280
inclination: 97.3577°
perigee height: 481 km
apogee height: 508 km
right ascension of ascending node: 34.8607°
argument of perigee: 163.1012°
revolutions per day: 15.23749735
mean anomaly at epoch: 197.0868°
orbit number at epoch: 3571

The dashed part of the orbit path shows where the satellite is in the earth's shadow,  

DLR